Carmi, IL

2:03 PM CDT on March 26, 2017 (GMT -0500)
Carmi Municipal

Weather History for KCUL - December, 2013

Change the Weather History Date:

Friday, December 6, 2013

  Actual Average (KEHR) Record (KEHR)
Temperature  
Mean Temperature 24 °F -  
Max Temperature 26 °F 48 °F 71 °F (1998)
Min Temperature 22 °F 31 °F 3 °F (2002)
Degree Days  
Heating Degree Days 41    
Moisture  
Dew Point 23 °F    
Average Humidity 93    
Maximum Humidity 98    
Minimum Humidity 82    
Precipitation  
Precipitation 0.09 in - - ()
Sea Level Pressure  
Sea Level Pressure 30.33 in    
Wind  
Wind Speed 8 mph (WNW)    
Max Wind Speed 10 mph    
Max Gust Speed -    
Visibility 4 miles    
Events Snow    
Averages and records for this station are not official NWS values.
T = Trace of Precipitation, MM = Missing Value Source: NWS Daily Summary

Daily Weather History Graph

Daily Weather History Graph

Search for Another Location

Airport or City:

Trip Planner

Search our weather history database for the weather conditions in past years. The results will help you decide how hot, cold, wet, or windy it might be!

Date:

Astronomy

Dec. 06, 2013 Rise Set
Actual Time 6:54 AM CST 4:32 PM CST
Civil Twilight 6:25 AM CST 5:01 PM CST
Nautical Twilight 5:52 AM CST 5:34 PM CST
Astronomical Twilight 5:20 AM CST 6:06 PM CST
Moon 10:02 AM CST (12/6) 9:01 PM CST (12/6)
Length of Visible Light 10h 36m
Length of Day
9h 37m
Waxing Crescent, 19% of the Moon is Illuminated
Dec 6
Waxing Crescent
Dec 9
First Quarter
Dec 17
Full
Dec 25
Last Quarter
Jan 1
New

Hourly Weather History & Observations

Time (CST) Temp. Windchill Dew Point Humidity Pressure Visibility Wind Dir Wind Speed Gust Speed Precip Events Conditions
12:15 AM 26.2 °F 19.6 °F 25.5 °F 97% 30.24 in 5.0 mi WNW 5.8 mph - 0.01 in Snow Light Snow
12:35 AM 26.4 °F 18.0 °F 25.5 °F 96% 30.23 in 3.0 mi WNW 8.1 mph - 0.01 in Snow Light Snow
12:55 AM 25.9 °F 18.2 °F 25.3 °F 98% 30.25 in 0.8 mi WNW 6.9 mph - 0.02 in Snow Snow
1:15 AM 25.7 °F 18.0 °F 25.2 °F 98% 30.24 in 1.0 mi WNW 6.9 mph - 0.01 in Snow Snow
1:35 AM 25.3 °F 18.5 °F 24.8 °F 98% 30.23 in 1.0 mi WNW 5.8 mph - 0.01 in Snow Light Snow
1:55 AM 25.5 °F 18.7 °F 24.8 °F 97% 30.24 in 3.0 mi WNW 5.8 mph - 0.02 in Snow Light Snow
2:15 AM 25.3 °F 17.6 °F 24.8 °F 98% 30.27 in 1.2 mi WNW 6.9 mph - 0.01 in Snow Light Snow
2:35 AM 25.2 °F 16.5 °F 24.6 °F 98% 30.25 in 1.2 mi WNW 8.1 mph - 0.01 in Snow Light Snow
2:55 AM 25.2 °F 16.5 °F 24.4 °F 97% 30.25 in 1.8 mi WNW 8.1 mph - 0.01 in Snow Light Snow
3:15 AM 24.8 °F 16.1 °F 23.9 °F 96% 30.23 in 2.5 mi WNW 8.1 mph - N/A Snow Light Snow
3:35 AM 24.8 °F 15.3 °F 23.5 °F 95% 30.22 in 7.0 mi WNW 9.2 mph - N/A Snow Light Snow
3:55 AM 25.0 °F 17.1 °F 23.7 °F 95% 30.20 in 7.0 mi WNW 6.9 mph - N/A Snow Light Snow
4:15 AM 25.3 °F 16.7 °F 23.7 °F 94% 30.22 in 10.0 mi WNW 8.1 mph - N/A   Mostly Cloudy
4:35 AM 25.2 °F 15.7 °F 23.5 °F 94% 30.24 in 10.0 mi WNW 9.2 mph - N/A   Overcast
4:55 AM 25.3 °F 17.6 °F 23.5 °F 93% 30.25 in 7.0 mi WNW 6.9 mph - N/A Snow Light Snow
5:15 AM 24.8 °F 16.1 °F 23.7 °F 96% 30.27 in 2.0 mi WNW 8.1 mph - N/A Snow Light Snow
5:35 AM 25.0 °F 17.1 °F 23.9 °F 96% 30.26 in 5.0 mi WNW 6.9 mph - N/A Snow Light Snow
5:55 AM 24.8 °F 16.9 °F 23.7 °F 96% 30.27 in 2.5 mi WNW 6.9 mph - N/A Snow Light Snow
6:15 AM 24.6 °F 15.8 °F 23.9 °F 97% 30.25 in 1.2 mi WNW 8.1 mph - 0.02 in Snow Light Snow
6:35 AM 24.8 °F 16.1 °F 23.9 °F 96% 30.28 in 2.5 mi WNW 8.1 mph - 0.04 in Snow Light Snow
6:55 AM 24.8 °F 16.1 °F 23.7 °F 96% 30.28 in 2.5 mi WNW 8.1 mph - 0.04 in Snow Light Snow
7:15 AM 24.6 °F 14.4 °F 23.5 °F 96% 30.28 in 1.2 mi WNW 10.4 mph - N/A Snow Snow
7:35 AM 24.3 °F 15.4 °F 23.5 °F 97% 30.27 in 0.2 mi WNW 8.1 mph - N/A Snow Snow
7:55 AM 24.3 °F 16.3 °F 23.7 °F 98% 30.28 in 0.8 mi WNW 6.9 mph - N/A Snow Light Snow
8:15 AM 24.4 °F 15.6 °F 23.5 °F 96% 30.31 in 1.2 mi WNW 8.1 mph - N/A Snow Light Snow
8:35 AM 24.4 °F 14.2 °F 23.4 °F 96% 30.30 in 1.0 mi WNW 10.4 mph - N/A Snow Light Snow
8:55 AM 24.4 °F 15.6 °F 23.4 °F 96% 30.32 in 0.8 mi WNW 8.1 mph - N/A Snow Light Snow
9:15 AM 24.1 °F 13.7 °F 23.0 °F 96% 30.32 in 0.8 mi WNW 10.4 mph - N/A Snow Light Snow
9:35 AM 24.4 °F 15.6 °F 23.4 °F 96% 30.33 in 1.2 mi WNW 8.1 mph - N/A Snow Light Snow
9:55 AM 24.3 °F 15.4 °F 23.0 °F 95% 30.31 in 0.5 mi WNW 8.1 mph - N/A Snow Snow
10:15 AM 23.9 °F 14.2 °F 23.0 °F 96% 30.31 in 0.5 mi WNW 9.2 mph - N/A Snow Light Snow
10:35 AM 24.3 °F 13.9 °F 23.0 °F 95% 30.30 in 0.8 mi WNW 10.4 mph - N/A Snow Light Snow
10:55 AM 24.3 °F 14.6 °F 23.0 °F 95% 30.29 in 0.8 mi WNW 9.2 mph - N/A Snow Light Snow
11:15 AM 24.3 °F 15.4 °F 23.0 °F 95% 30.30 in 0.8 mi WNW 8.1 mph - N/A Snow Light Snow
11:35 AM 24.3 °F 15.4 °F 23.0 °F 95% 30.30 in 0.8 mi WNW 8.1 mph - N/A Snow Light Snow
11:55 AM 24.4 °F 15.6 °F 23.0 °F 94% 30.30 in 0.8 mi WNW 8.1 mph - N/A Snow Light Snow
12:15 PM 24.4 °F 15.6 °F 23.4 °F 96% 30.28 in 0.8 mi WNW 8.1 mph - N/A Snow Light Snow
12:35 PM 24.3 °F 14.6 °F 23.2 °F 96% 30.28 in 0.8 mi WNW 9.2 mph - N/A Snow Light Snow
12:55 PM 24.4 °F 14.9 °F 23.0 °F 94% 30.27 in 1.0 mi WNW 9.2 mph - N/A Snow Light Snow
1:15 PM 24.4 °F 14.2 °F 23.0 °F 94% 30.27 in 0.8 mi WNW 10.4 mph - N/A Snow Light Snow
1:35 PM 24.6 °F 15.8 °F 23.4 °F 95% 30.29 in 0.8 mi WNW 8.1 mph - N/A Snow Light Snow
1:55 PM 24.8 °F 15.3 °F 23.0 °F 93% 30.30 in 1.2 mi WNW 9.2 mph - N/A Snow Light Snow
2:15 PM 24.8 °F 14.6 °F 23.4 °F 94% 30.30 in 2.0 mi WNW 10.4 mph - N/A Snow Light Snow
2:35 PM 24.8 °F 15.3 °F 23.2 °F 94% 30.27 in 0.8 mi WNW 9.2 mph - N/A Snow Light Snow
2:55 PM 24.6 °F 15.1 °F 23.4 °F 95% 30.30 in 0.8 mi WNW 9.2 mph - N/A Snow Light Snow
3:15 PM 24.6 °F 15.1 °F 23.4 °F 95% 30.30 in 1.0 mi WNW 9.2 mph - N/A Snow Light Snow
3:35 PM 24.4 °F 14.9 °F 23.2 °F 95% 30.33 in 1.0 mi WNW 9.2 mph - N/A Snow Light Snow
3:55 PM 24.6 °F 15.8 °F 23.4 °F 95% 30.33 in 1.0 mi WNW 8.1 mph - N/A Snow Light Snow
4:15 PM 24.6 °F 15.8 °F 23.2 °F 94% 30.35 in 1.8 mi WNW 8.1 mph - N/A Snow Light Snow
4:35 PM 24.4 °F 14.9 °F 23.0 °F 94% 30.33 in 2.0 mi WNW 9.2 mph - N/A Snow Light Snow
4:55 PM 24.1 °F 14.4 °F 23.0 °F 96% 30.34 in 2.0 mi WNW 9.2 mph - N/A Snow Light Snow
5:15 PM 23.9 °F 13.5 °F 22.8 °F 96% 30.36 in 2.0 mi WNW 10.4 mph - N/A Snow Light Snow
5:35 PM 23.9 °F 14.2 °F 22.6 °F 95% 30.36 in 3.0 mi WNW 9.2 mph - N/A Snow Light Snow
5:55 PM 23.9 °F 14.2 °F 22.1 °F 93% 30.38 in 4.0 mi WNW 9.2 mph - N/A Snow Light Snow
6:15 PM 23.9 °F 14.2 °F 22.1 °F 93% 30.39 in 7.0 mi WNW 9.2 mph - N/A Snow Light Snow
6:35 PM 23.9 °F 14.2 °F 22.1 °F 93% 30.40 in 10.0 mi WNW 9.2 mph - N/A   Scattered Clouds
6:55 PM 23.9 °F 15.0 °F 22.1 °F 93% 30.40 in 10.0 mi WNW 8.1 mph - N/A   Scattered Clouds
7:15 PM 23.7 °F 14.7 °F 21.7 °F 92% 30.42 in 10.0 mi WNW 8.1 mph - N/A   Clear
7:35 PM 23.5 °F 13.7 °F 21.2 °F 91% 30.43 in 10.0 mi WNW 9.2 mph - N/A   Clear
7:55 PM 23.7 °F 13.3 °F 21.2 °F 90% 30.44 in 10.0 mi WNW 10.4 mph - N/A   Clear
8:15 PM 23.7 °F 14.7 °F 20.3 °F 87% 30.45 in 10.0 mi WNW 8.1 mph - N/A   Clear
8:35 PM 23.5 °F 15.4 °F 20.3 °F 87% 30.45 in 10.0 mi WNW 6.9 mph - N/A   Clear
8:55 PM 23.7 °F 15.6 °F 20.5 °F 87% 30.46 in 10.0 mi WNW 6.9 mph - N/A   Clear
9:15 PM 23.7 °F 15.6 °F 20.1 °F 86% 30.47 in 10.0 mi WNW 6.9 mph - N/A   Clear
9:35 PM 23.5 °F 14.5 °F 19.4 °F 84% 30.47 in 10.0 mi WNW 8.1 mph - N/A   Clear
9:55 PM 23.4 °F 14.3 °F 19.0 °F 84% 30.48 in 10.0 mi WNW 8.1 mph - N/A   Clear
10:15 PM 23.0 °F 13.1 °F 18.5 °F 83% 30.48 in 10.0 mi WNW 9.2 mph - N/A   Clear
10:35 PM 22.6 °F 12.6 °F 18.5 °F 84% 30.49 in 10.0 mi WNW 9.2 mph - N/A   Clear
10:55 PM 22.6 °F 12.6 °F 18.5 °F 84% 30.50 in 10.0 mi WNW 9.2 mph - N/A   Clear
11:15 PM 22.6 °F 11.9 °F 18.0 °F 82% 30.50 in 10.0 mi WNW 10.4 mph - N/A   Clear
11:35 PM 22.5 °F 12.4 °F 18.0 °F 83% 30.51 in 10.0 mi WNW 9.2 mph - N/A   Clear
11:55 PM 22.1 °F 12.8 °F 17.8 °F 83% 30.52 in 10.0 mi WNW 8.1 mph - N/A   Clear